Theta_e
304 303 303 303 303 303 303 304 304 304 304 304 304 303 302 306 310 311 314 311 305 304 303 302 303 302 301 302 302 302 302 301 301 301 301 300 300 298 297 298 298 298 298 298 298 299 299 300 300 300 300 300 300 299 299 299 298 298 297 297 299 299 298 298 298 298 298 298 298 298 298 298 298 298
304 303 301 301 302 303 303 304 304 304 304 303 303 305 304 303 304 305 309 310 305 303 302 302 302 302 301 301 301 302 301 300 301 300 300 300 299 297 297 298 298 297 297 298 298 299 299 300 300 300 301 300 300 299 299 299 298 298 297 297 297 298 297 297 297 298 298 298 298 298 298 298 299 299
303 302 303 303 303 303 303 303 304 303 303 303 303 304 304 304 303 302 303 305 304 302 302 301 301 301 300 301 301 301 300 300 300 300 300 300 297 296 297 298 296 296 297 298 298 299 299 300 300 301 301 301 300 299 299 299 298 297 297 296 296 297 297 297 297 297 298 299 298 298 299 299 299 299
305 305 305 305 305 304 304 304 304 304 304 304 303 304 304 303 303 302 302 303 302 302 302 301 300 300 300 300 300 300 300 300 300 300 300 298 296 296 297 297 296 296 297 298 298 299 299 300 300 301 301 301 300 299 299 298 298 297 296 295 296 296 296 296 297 297 298 298 298 298 298 298 299 299
306 306 305 305 304 304 304 304 304 304 304 304 303 303 303 303 303 303 302 302 302 301 301 301 300 299 299 299 299 300 300 299 300 299 298 296 296 297 297 296 296 297 297 297 298 299 299 300 300 301 301 301 300 299 299 298 297 297 296 295 295 296 296 296 297 297 297 298 299 299 299 299 299 299
304 305 304 304 304 304 304 303 303 304 305 304 303 303 302 302 302 302 301 301 301 301 300 300 299 299 299 299 299 299 299 299 299 298 296 296 296 296 296 296 296 297 297 297 298 299 299 299 300 301 301 301 300 300 299 298 297 296 295 294 294 295 296 296 296 296 296 297 298 298 299 299 298 298
304 304 303 304 305 305 304 303 302 303 304 304 304 303 302 301 301 300 300 300 300 300 300 299 299 298 298 298 298 298 299 299 298 296 296 296 296 296 296 296 296 296 296 297 298 298 299 299 300 300 301 301 300 300 299 298 297 296 295 294 294 294 294 295 294 294 295 296 296 296 297 298 298 298
304 304 304 305 305 305 304 303 302 302 303 303 303 302 301 300 300 299 298 298 299 299 299 298 297 297 297 297 298 298 298 298 296 296 296 296 296 296 296 296 296 296 296 297 297 298 299 299 299 300 300 300 300 300 299 298 297 297 296 295 294 294 294 294 293 293 294 295 295 295 296 296 297 297
304 304 305 305 305 304 303 303 302 301 302 302 301 301 300 299 298 297 297 298 298 297 297 297 296 295 296 296 297 298 298 297 296 296 297 297 297 297 297 297 297 296 296 297 297 298 298 299 299 299 300 300 300 300 299 298 297 297 296 296 295 295 294 294 293 293 293 293 294 295 295 296 296 297
304 304 305 305 305 305 303 303 302 300 300 301 301 300 299 296 295 295 296 296 297 297 296 296 296 296 296 296 297 298 298 297 297 297 297 297 297 297 297 297 297 297 297 297 298 298 298 299 299 299 300 300 300 299 298 298 297 297 297 296 296 295 294 294 294 293 293 293 293 294 294 295 295 296
304 305 305 304 304 304 303 302 301 298 298 300 300 297 295 294 295 296 297 297 298 298 298 298 298 297 297 297 297 298 297 297 298 298 297 298 298 298 297 297 297 297 297 297 297 298 298 298 299 299 300 300 300 299 298 298 297 297 297 296 296 295 295 294 294 293 293 293 293 293 293 294 294 295
304 305 304 304 303 303 302 301 297 294 295 296 296 295 295 297 299 299 299 299 299 299 299 299 298 298 297 297 297 298 298 298 298 298 298 298 298 298 298 297 297 297 297 297 298 298 298 298 298 299 299 300 299 299 298 298 297 297 296 296 296 296 295 294 294 293 293 293 293 293 293 293 294 294
304 304 304 304 302 300 298 297 294 291 293 294 294 296 298 300 300 300 300 300 300 299 299 299 299 298 298 297 297 298 298 298 298 298 298 298 299 299 298 297 297 297 297 297 297 297 298 298 298 298 299 299 299 299 298 298 297 297 296 296 296 296 295 295 294 293 292 292 293 292 292 293 294 294
304 304 304 303 299 295 293 293 294 295 296 297 297 298 300 300 300 300 300 301 301 299 298 299 299 298 298 297 297 298 298 298 298 298 299 299 299 298 298 297 297 297 297 297 297 297 297 297 297 298 299 299 299 298 298 298 297 297 296 296 296 295 295 294 294 293 293 292 292 292 292 293 293 294
304 304 304 303 300 298 295 293 295 299 299 299 299 299 300 301 301 301 301 301 301 300 299 299 299 298 297 298 298 298 298 299 298 298 299 299 299 298 297 297 297 297 297 297 297 297 297 297 298 298 299 299 298 298 298 298 297 297 296 296 295 295 295 294 293 293 293 292 292 293 293 293 293 294
304 304 304 304 303 303 299 295 297 300 300 299 298 297 300 302 302 302 302 302 302 302 301 300 299 298 297 297 298 299 299 298 298 298 299 299 298 298 297 297 297 297 297 297 297 297 297 297 298 298 298 298 298 299 298 297 297 296 296 296 295 295 294 294 293 293 293 292 292 293 293 294 294 294
304 304 305 304 304 303 301 299 300 300 299 298 296 296 300 303 302 302 302 302 303 302 301 300 299 298 298 297 299 299 299 298 298 298 299 298 298 298 297 297 297 297 297 297 296 296 297 297 298 298 298 298 298 299 298 297 297 296 296 295 295 294 294 293 293 293 292 292 292 292 293 294 295 295
305 305 305 305 304 303 302 302 302 301 301 298 295 297 302 302 301 302 302 302 301 300 299 298 298 298 298 298 299 300 300 299 299 299 299 298 298 298 298 298 297 297 297 297 296 296 296 297 297 298 297 298 298 298 297 297 297 296 296 295 295 294 294 293 293 293 293 293 292 293 293 294 295 296
306 305 305 305 304 303 303 303 303 302 303 299 295 299 303 301 301 302 302 301 299 297 297 298 298 299 299 299 300 300 300 300 299 299 299 299 298 298 298 298 297 297 297 297 296 296 296 297 297 297 297 298 298 298 297 296 296 296 296 295 295 295 294 294 294 294 294 294 293 293 294 295 296 297
306 305 305 305 305 304 303 303 303 303 303 299 295 298 301 300 301 302 301 300 298 297 298 299 299 300 300 300 300 300 300 300 299 300 300 299 299 298 297 297 297 297 297 297 296 296 296 296 296 296 297 298 298 297 297 296 296 296 296 295 295 295 295 294 294 295 295 295 295 294 295 295 297 297
306 306 305 305 304 303 303 303 302 302 303 299 295 295 297 299 301 302 300 299 298 298 299 300 300 300 300 300 300 300 300 300 299 300 300 300 299 298 297 297 297 297 297 297 296 296 296 296 296 296 297 298 298 297 296 296 296 296 295 295 295 295 294 294 295 295 296 296 296 296 296 296 297 298
306 305 305 305 305 303 302 303 302 302 303 299 295 293 295 297 299 299 298 298 299 300 300 300 300 300 300 300 300 300 300 299 300 300 300 299 299 298 297 297 297 297 297 297 296 296 296 296 296 296 297 297 297 297 296 296 296 296 295 295 295 295 294 294 295 295 296 297 297 298 298 298 298 298
305 305 305 305 304 302 302 303 302 303 302 298 294 293 294 295 296 296 296 298 299 299 300 300 301 300 300 300 300 300 300 300 300 300 300 299 299 299 298 298 297 297 297 297 297 296 296 296 296 296 297 297 297 297 296 296 296 295 295 295 295 295 294 294 295 295 297 298 299 299 299 299 300 299
304 304 304 305 304 302 302 302 302 302 300 296 293 293 294 294 294 295 297 298 299 299 300 300 300 300 300 300 300 299 299 300 300 300 299 299 299 299 299 298 297 297 297 297 297 296 296 296 296 296 297 297 297 297 296 296 296 295 295 295 295 295 294 294 295 295 297 300 301 301 301 301 301 300
303 304 304 305 304 303 302 302 302 300 297 294 293 294 294 294 294 295 297 298 299 299 300 300 300 300 300 300 300 300 300 300 300 299 299 299 299 299 299 299 298 297 298 298 298 297 296 296 296 296 296 296 296 296 296 296 295 295 295 295 295 295 294 294 295 296 298 301 301 301 302 302 302 301
304 304 304 304 304 304 302 300 298 297 294 293 294 294 295 295 295 296 297 298 299 299 300 300 300 300 299 300 300 299 299 300 300 299 299 299 299 299 299 299 298 298 298 298 298 297 297 297 296 296 295 296 296 295 295 296 295 295 294 295 295 295 295 294 295 297 300 301 301 300 301 302 301 300
304 303 303 304 303 303 302 298 296 296 296 295 294 294 295 297 297 297 298 298 299 299 300 300 300 300 299 299 299 299 299 300 300 299 299 299 299 299 299 299 299 298 298 298 298 298 297 297 297 296 296 295 295 295 295 295 295 295 294 294 295 295 295 294 295 297 299 300 299 299 298 299 299 298
303 303 303 303 303 303 302 299 298 299 299 297 294 294 296 298 298 298 299 299 299 300 300 300 300 299 299 299 300 300 299 300 300 299 299 299 299 299 299 299 299 299 298 298 298 298 298 297 297 297 296 296 295 295 294 294 294 294 294 294 295 295 295 294 294 296 297 298 298 298 297 297 298 297
302 303 302 303 303 302 301 300 300 300 298 296 294 294 295 297 299 299 299 300 300 300 300 300 300 299 300 300 300 300 300 300 299 299 299 299 299 299 299 299 299 299 298 298 298 298 298 298 298 297 297 296 296 295 294 294 294 294 294 293 294 295 295 295 294 294 296 297 297 296 296 296 296 296
301 302 302 302 302 301 300 300 300 300 298 295 294 295 296 298 299 300 300 300 300 300 300 300 300 300 300 300 300 300 300 299 299 299 299 299 299 299 299 299 299 299 298 299 298 298 298 298 298 297 297 296 296 296 295 294 294 294 294 293 293 294 295 295 294 294 294 295 296 296 295 295 295 295
300 301 301 301 301 300 300 300 300 300 298 296 295 296 297 299 300 300 300 300 300 301 301 301 301 300 300 300 300 300 300 299 299 299 299 299 299 299 299 299 299 299 298 299 298 298 298 298 298 298 297 296 296 296 295 295 294 293 293 293 293 294 295 295 295 294 293 294 295 295 294 294 294 294
299 300 300 300 299 299 299 299 299 299 298 296 295 296 297 299 301 301 301 301 301 301 301 301 301 300 300 300 300 300 299 299 299 299 299 299 299 299 299 299 299 298 298 298 298 298 298 298 298 298 297 297 296 296 295 295 295 293 293 293 294 294 294 295 295 294 293 293 293 294 293 293 293 293
298 299 299 299 299 298 298 297 297 297 296 295 296 298 299 301 302 302 302 302 301 301 301 301 300 300 300 300 300 300 299 299 299 299 299 299 299 299 299 299 299 298 298 298 298 298 298 298 298 298 297 297 296 296 295 295 295 294 293 293 293 294 294 295 295 294 294 293 293 293 293 293 293 292
297 298 299 298 298 297 297 297 296 296 296 297 299 300 301 302 302 301 301 301 301 300 300 300 300 300 300 300 300 299 299 299 299 299 299 299 299 299 299 299 298 298 298 298 298 298 298 298 298 298 298 298 297 296 296 295 295 295 294 293 293 294 294 295 295 295 294 293 292 292 292 293 293 292
296 298 298 298 298 297 297 297 298 298 298 299 300 300 300 300 301 301 301 301 301 301 301 300 300 300 301 300 299 299 299 299 299 299 299 299 299 299 299 299 298 298 298 298 298 298 298 298 298 297 297 297 296 297 297 296 295 295 295 294 294 294 294 295 295 295 295 294 293 293 292 292 293 292
295 298 298 297 298 298 298 299 299 299 299 299 299 298 298 299 301 301 301 301 301 301 301 301 300 300 300 299 299 299 299 299 299 299 299 299 299 299 299 298 298 298 298 298 298 298 298 297 297 297 296 295 296 297 297 296 296 295 295 294 294 294 294 294 295 295 295 294 294 293 293 292 292 292
295 297 297 297 298 299 299 300 299 299 298 298 298 298 298 299 300 301 302 302 301 301 301 301 301 300 299 299 299 299 299 299 299 299 299 299 299 299 298 298 298 298 298 298 298 298 298 297 297 297 295 295 296 297 297 297 297 296 295 295 294 294 294 294 294 294 294 294 294 294 293 293 293 293
295 295 296 296 297 299 299 299 297 296 296 297 297 298 298 299 300 301 302 302 302 301 301 301 300 300 299 299 299 299 299 299 299 299 299 299 298 298 298 298 298 299 298 298 299 298 298 298 298 297 296 295 296 297 296 296 297 297 296 295 295 294 294 294 294 294 294 294 295 294 294 294 293 293
295 295 295 295 296 297 298 296 295 295 296 296 297 297 298 299 301 302 302 302 302 302 301 301 300 299 299 299 299 299 299 299 299 299 299 298 298 298 298 298 298 298 298 298 298 298 298 298 298 297 297 296 296 297 296 295 296 298 297 296 295 295 294 294 294 294 294 294 294 295 295 294 294 294
296 296 296 296 296 296 295 295 294 294 295 296 296 297 298 300 302 302 302 302 302 301 301 300 300 300 299 299 299 299 299 299 299 298 298 298 298 298 298 298 298 298 298 298 298 298 298 298 298 298 297 297 297 298 298 297 297 298 298 297 296 295 295 294 294 294 294 294 294 294 295 295 294 294
297 297 297 296 296 296 296 295 295 295 296 297 297 298 299 300 302 302 302 302 302 302 301 301 300 300 300 299 299 299 299 299 299 299 298 299 299 299 299 299 299 298 298 298 298 298 298 298 298 298 298 298 298 298 298 297 296 297 298 298 297 296 295 295 294 294 294 294 294 294 294 295 294 294
297 297 297 297 296 296 296 296 295 295 296 296 297 298 299 300 301 302 303 303 302 302 302 301 300 300 299 299 299 298 298 298 299 298 299 299 299 299 299 299 299 298 298 298 298 298 298 298 298 298 298 298 298 297 296 295 295 296 298 299 299 298 297 296 295 294 294 294 294 294 294 294 294 293
297 297 297 297 297 297 297 297 297 297 296 295 296 298 299 300 301 302 303 303 302 301 301 301 300 300 299 299 299 299 298 298 298 298 298 299 299 299 299 298 298 298 298 298 298 298 298 298 298 298 298 298 298 296 295 295 296 296 297 298 299 299 298 297 296 295 295 294 294 294 294 294 294 293
297 297 298 298 298 298 299 299 299 298 298 297 298 299 300 301 302 303 303 303 302 301 301 300 300 299 299 299 299 299 299 299 298 298 298 298 298 298 298 298 298 298 298 298 298 298 298 298 298 298 298 298 297 297 296 296 296 297 298 298 299 299 299 298 297 296 295 295 295 295 295 295 295 294
298 299 299 300 300 300 300 300 300 299 299 299 299 299 300 301 302 303 302 302 301 301 300 300 300 300 299 299 299 299 299 299 298 298 298 298 298 298 298 298 298 298 298 298 298 298 298 298 298 298 298 298 298 297 297 297 297 297 298 298 299 298 299 299 298 297 296 296 295 295 295 295 295 295
Wind_Speed
15 14 13 14 15 13 13 14 14 13 13 13 12 13 13 10 5 2 3 3 3 8 14 12 13 18 19 20 20 20 22 23 23 24 24 25 27 30 33 32 32 32 32 32 30 29 28 27 27 27 22 21 26 29 30 34 36 37 38 37 33 31 31 31 31 31 28 27 28 27 26 26 26 26
14 14 15 15 15 13 13 12 12 12 13 12 12 10 10 11 8 4 2 2 3 9 14 13 15 20 21 21 21 22 23 23 23 24 24 25 29 32 32 32 33 34 33 32 30 29 28 27 29 27 23 24 28 30 31 34 38 40 40 39 35 32 31 30 31 32 30 27 27 27 26 26 26 26
14 16 16 15 14 13 12 11 11 11 12 11 11 9 8 9 8 6 3 1 3 9 15 16 17 21 22 22 22 23 23 23 24 23 24 27 31 32 32 33 35 34 33 32 30 30 29 28 30 28 24 25 28 31 34 36 39 43 43 41 36 31 30 29 28 29 29 28 27 26 26 26 25 25
14 15 15 13 12 11 10 10 9 10 10 9 8 8 8 7 6 6 5 3 7 11 13 16 19 21 22 23 23 23 23 24 24 24 26 30 32 32 33 34 35 34 33 32 31 31 29 29 32 29 26 26 29 32 36 38 41 44 44 41 35 30 29 29 28 27 28 28 27 25 25 25 25 25
12 13 14 13 12 11 9 9 9 9 10 8 7 7 7 6 6 6 6 6 10 14 15 17 20 22 23 24 24 24 25 25 24 26 29 30 31 32 33 34 35 33 33 33 32 30 28 29 32 30 28 27 29 34 37 39 41 43 43 38 33 30 29 28 26 24 24 26 27 26 25 24 24 24
11 12 12 13 12 9 7 7 8 9 9 9 7 6 5 6 7 7 8 8 9 14 18 20 21 23 24 25 24 24 25 25 26 29 30 30 31 34 34 33 34 34 33 33 31 28 26 28 30 31 30 28 30 35 38 38 40 40 39 35 31 30 29 26 25 25 25 25 25 25 25 24 23 23
12 11 12 12 11 9 7 7 7 8 7 8 7 5 4 4 6 6 7 9 10 14 19 21 22 24 25 24 24 24 24 25 28 30 29 30 33 35 34 32 33 34 34 33 31 28 27 29 30 31 30 28 30 36 37 37 39 38 36 34 31 31 31 30 31 31 29 27 25 23 22 22 22 22
11 11 12 11 9 8 8 7 6 7 6 6 5 4 3 3 5 6 6 8 11 13 17 20 21 23 23 23 23 23 23 26 28 28 28 31 34 36 34 33 34 35 35 34 33 31 31 32 33 33 31 30 32 36 37 37 38 37 36 34 33 32 33 33 34 32 29 28 26 23 21 21 22 22
11 11 11 10 8 7 7 5 4 5 5 4 4 3 3 3 5 6 6 7 10 12 15 18 20 21 22 22 22 22 24 28 28 27 28 32 35 36 36 34 35 37 36 36 35 34 34 34 35 34 31 30 33 36 37 37 37 37 36 36 35 34 33 33 33 32 30 29 27 24 22 22 22 22
11 10 10 9 8 7 6 5 3 3 5 4 2 2 3 4 5 6 8 8 9 11 14 16 19 22 23 23 22 23 25 27 28 27 28 32 36 37 36 35 36 37 37 37 36 36 36 36 35 33 29 29 33 37 37 36 37 37 38 38 37 36 34 33 33 33 32 30 28 26 24 23 22 22
11 10 10 9 8 7 5 3 1 2 4 4 1 2 4 5 7 9 10 10 10 12 14 16 18 20 22 23 23 24 25 26 27 27 27 30 35 39 38 35 34 35 36 37 37 36 36 36 36 32 29 31 35 37 37 36 36 37 39 40 39 37 36 34 33 33 32 30 27 26 25 24 24 23
11 10 9 8 7 6 5 2 1 2 3 2 1 3 5 6 8 9 10 11 12 13 15 17 18 19 22 24 24 25 27 25 26 28 26 27 33 38 40 38 33 33 35 37 37 37 36 37 37 34 32 34 36 37 37 36 36 38 40 42 42 39 37 35 33 33 32 29 26 25 25 24 24 25
11 10 9 7 5 4 4 3 3 4 4 3 3 4 5 6 8 10 11 12 13 13 15 16 18 19 22 25 24 25 26 26 27 30 28 28 32 35 37 39 36 32 34 36 37 37 37 37 38 37 35 36 38 37 36 36 37 39 43 45 43 40 38 36 34 33 31 28 26 25 26 24 24 24
12 11 9 6 3 2 4 5 4 3 3 3 3 4 5 7 9 11 13 15 15 15 15 16 18 19 22 25 25 25 27 28 29 31 30 30 32 32 29 33 37 35 34 35 36 37 37 37 38 37 36 37 38 37 36 37 38 40 45 47 44 41 39 36 34 33 31 28 26 24 25 24 22 22
13 11 9 6 4 2 3 5 4 1 1 2 3 3 3 5 9 12 14 16 16 16 16 17 19 19 22 25 26 26 28 29 30 32 31 30 31 29 23 23 31 36 37 34 34 36 38 38 37 36 36 38 38 37 37 38 38 41 46 47 43 40 37 36 34 33 32 29 25 23 22 22 22 22
13 12 9 7 5 2 3 4 3 2 1 2 4 4 3 4 8 10 12 15 16 16 16 18 20 21 22 24 27 28 29 30 31 32 32 30 29 29 25 23 27 37 39 34 31 33 37 38 36 36 37 38 38 38 39 38 38 42 47 46 42 39 36 35 33 32 31 29 25 21 20 20 21 22
13 13 11 9 7 4 3 3 2 3 3 5 7 6 3 4 7 8 10 12 12 13 14 16 19 20 21 24 27 30 31 32 32 30 30 30 29 29 29 28 32 38 38 33 30 31 35 37 35 36 38 39 39 40 39 37 39 44 47 44 41 39 36 33 31 29 28 26 22 20 19 18 18 20
14 14 13 11 8 6 5 5 5 5 5 7 7 4 2 5 7 7 8 8 8 10 11 14 17 20 22 25 27 29 31 31 30 28 28 29 29 29 31 33 35 36 37 35 29 25 32 38 35 36 40 40 40 40 37 37 42 45 46 43 41 40 37 32 29 27 25 22 20 19 19 19 18 19
15 17 15 11 9 8 9 9 8 7 7 8 6 3 2 4 5 6 6 7 10 12 12 13 17 20 22 25 26 25 25 24 25 26 27 27 28 29 31 33 34 34 37 38 27 20 30 38 34 35 41 41 39 38 36 39 45 46 45 44 43 41 38 34 30 25 22 20 19 19 19 19 18 17
14 16 14 10 9 10 12 11 9 8 8 8 6 5 4 3 3 4 5 8 11 11 11 13 17 19 20 21 21 21 21 22 25 27 26 27 29 28 27 28 31 34 36 37 29 22 29 37 34 35 41 41 36 35 37 42 47 48 45 45 44 42 39 36 32 25 20 17 16 16 18 18 16 15
15 15 14 11 10 11 12 11 9 9 9 8 7 7 5 2 1 2 5 7 8 7 9 12 13 15 16 17 18 21 21 24 28 27 25 27 29 27 21 20 27 33 34 35 33 26 29 35 35 35 38 38 33 33 39 46 47 47 47 46 45 43 41 38 34 27 21 17 15 14 15 15 14 13
14 13 14 14 14 13 12 11 11 10 10 9 7 5 3 3 3 3 4 5 5 6 7 9 11 13 14 16 19 21 23 26 27 25 26 29 29 26 22 21 25 29 31 36 37 30 29 36 37 35 32 31 32 35 41 46 47 47 47 47 47 45 42 40 36 30 24 18 14 14 13 13 12 12
13 14 15 15 16 15 14 13 12 11 10 9 7 5 3 4 4 3 4 5 7 8 10 12 14 15 15 17 20 22 24 26 26 25 27 30 30 27 26 26 23 17 22 37 41 31 29 35 37 34 25 17 24 39 44 43 45 47 48 47 47 45 44 43 39 33 25 18 14 12 11 12 12 12
14 15 17 17 16 16 16 15 13 11 10 9 8 6 4 4 4 3 3 5 7 10 13 15 16 15 16 17 20 22 25 26 26 26 29 31 31 29 27 28 24 17 22 38 41 33 31 33 35 37 27 13 16 34 43 42 43 47 48 47 45 45 46 45 41 37 29 19 13 11 10 10 11 11
17 17 18 19 18 17 17 17 16 14 11 10 9 7 5 4 4 4 5 6 9 11 13 16 16 14 15 17 19 22 25 25 25 28 30 30 32 32 29 27 25 23 29 38 39 34 33 33 34 36 33 22 20 28 35 38 41 46 48 46 44 43 44 44 42 40 33 22 18 16 10 5 6 8
20 20 19 19 18 17 16 16 16 14 12 10 9 7 5 4 4 5 7 9 11 12 14 16 15 12 14 18 19 22 25 25 25 28 30 30 31 33 33 29 26 26 31 38 39 35 33 34 35 35 31 27 26 28 28 30 38 46 49 48 45 43 43 43 42 41 35 26 26 27 18 9 5 1
18 19 19 19 19 17 15 14 13 12 11 10 9 7 5 4 4 6 8 10 12 13 15 17 13 10 14 17 18 21 24 24 24 27 29 30 31 32 33 33 31 31 34 37 38 36 33 34 37 36 32 28 25 23 21 24 33 43 47 48 47 43 43 43 42 40 36 29 28 28 22 15 12 5
14 15 17 19 20 18 15 14 13 12 11 10 9 8 7 6 7 8 9 11 12 14 16 17 12 8 14 17 17 20 23 22 22 26 28 28 31 32 33 34 35 35 37 37 37 37 36 35 36 37 36 31 24 18 18 22 30 37 42 46 46 43 42 43 41 39 36 30 28 29 24 18 15 9
10 11 12 16 19 20 17 15 14 12 10 10 10 10 10 10 10 11 11 12 14 15 17 16 11 7 13 17 17 19 21 20 21 25 26 27 29 31 32 34 37 38 38 38 38 37 37 36 37 37 37 35 28 22 20 22 26 32 36 39 40 40 41 42 40 38 35 30 27 28 26 21 17 13
7 8 9 11 16 18 17 15 13 10 9 11 12 12 12 13 13 13 13 15 17 18 18 17 12 8 12 17 17 18 19 19 21 24 25 26 28 30 31 33 36 39 40 40 39 38 38 38 37 36 37 37 33 29 24 22 23 28 34 36 35 35 38 41 40 38 35 28 25 26 27 25 23 19
8 7 8 11 13 15 14 12 11 10 11 13 14 15 15 14 14 15 16 18 19 20 20 18 15 10 12 16 16 16 17 19 21 23 24 26 28 29 29 30 32 37 40 41 41 40 39 39 38 36 35 35 34 32 29 24 22 24 30 36 34 32 35 39 39 38 35 28 23 25 27 27 27 25
12 8 8 11 11 11 11 11 12 12 14 15 17 18 17 16 17 17 18 19 19 18 17 16 15 12 13 15 15 14 16 18 21 23 24 26 28 28 27 27 29 32 36 39 42 42 41 41 39 37 35 33 32 31 29 27 25 22 24 33 37 34 36 39 37 36 36 31 26 25 24 26 28 27
17 12 11 12 13 12 12 12 14 15 16 17 18 18 17 17 16 14 14 16 15 13 11 11 11 12 14 14 12 12 15 19 21 23 25 26 26 26 26 27 29 31 32 35 38 40 41 42 41 40 38 34 31 28 24 25 29 27 23 28 34 35 36 38 36 36 36 32 27 24 23 26 29 28
19 17 16 15 14 13 13 14 15 15 15 16 17 17 17 16 13 10 11 12 11 10 10 10 12 14 14 11 9 11 15 19 21 23 25 24 24 24 25 26 29 32 33 33 36 37 37 39 41 41 42 40 35 29 23 21 26 30 28 27 30 32 34 36 36 36 34 31 27 24 24 26 28 28
22 20 19 18 16 14 14 15 15 14 15 16 18 19 19 17 14 12 12 11 12 13 14 13 14 14 11 8 8 11 15 19 22 24 24 22 22 23 24 25 29 32 33 33 35 36 35 34 35 36 37 37 34 29 27 26 25 29 32 30 29 31 33 33 34 36 35 34 30 26 25 27 28 27
25 24 21 19 17 15 15 16 15 15 16 18 19 20 20 17 14 13 13 14 16 17 16 15 16 13 8 5 8 11 15 19 23 25 24 21 21 22 24 27 30 32 32 33 35 36 34 33 32 28 24 23 19 16 24 32 30 26 30 32 31 31 32 32 32 35 36 35 32 27 23 24 27 26
28 27 24 21 19 18 17 17 17 17 18 19 19 20 19 18 17 15 14 14 15 15 14 15 15 11 6 5 9 12 16 21 24 25 23 20 20 21 24 28 30 30 31 33 35 36 33 32 32 27 19 13 8 8 20 35 36 30 28 31 31 31 31 30 30 32 34 33 30 27 23 23 28 29
26 27 27 25 22 21 20 19 18 17 18 18 19 19 20 21 20 16 13 11 12 13 14 13 10 7 4 7 11 13 18 22 24 23 20 18 19 21 24 28 29 28 29 31 34 36 34 32 32 30 21 12 6 7 14 26 33 33 31 29 30 31 31 29 28 28 30 31 30 26 21 21 27 30
25 25 26 26 25 24 23 21 19 19 19 19 20 20 20 21 18 14 12 13 14 13 11 8 8 6 6 9 11 14 19 22 22 19 17 16 19 22 25 27 28 26 27 30 32 34 35 33 32 31 27 21 16 16 18 21 27 34 33 28 28 29 29 28 27 26 27 29 29 25 21 21 25 30
26 25 24 24 23 23 23 21 20 20 20 20 20 20 21 20 18 16 15 15 14 12 9 8 9 8 9 11 12 15 17 17 15 15 15 17 20 23 26 27 27 25 25 28 30 32 33 33 31 31 31 28 27 29 29 26 28 36 36 30 28 28 27 25 25 25 26 28 28 25 22 23 26 32
27 25 24 22 22 22 21 20 20 20 19 20 20 21 21 19 17 16 15 14 14 14 13 12 11 9 10 12 12 13 13 12 12 14 15 17 21 24 25 26 26 25 24 26 28 30 31 32 31 31 31 32 32 31 28 22 22 31 37 34 31 29 27 25 24 22 23 26 28 25 22 20 22 30
27 25 24 22 22 21 21 21 21 21 21 20 20 20 20 19 16 14 13 13 13 14 14 13 11 10 10 10 11 12 13 13 14 15 16 18 21 24 25 26 26 25 24 24 26 28 30 31 32 32 32 33 32 26 19 15 18 27 34 36 34 33 30 26 24 22 21 23 24 24 22 19 17 20
28 26 24 22 21 21 22 21 21 21 20 19 18 18 19 19 17 15 14 12 11 11 10 10 10 9 10 10 11 13 15 15 17 18 19 20 22 24 25 25 23 23 23 23 25 28 30 30 32 32 32 32 30 24 21 23 25 29 31 33 35 36 34 29 25 23 21 20 21 21 22 20 16 13
27 25 24 22 21 20 20 19 19 18 16 15 16 16 16 16 16 14 13 12 11 10 10 9 9 10 11 12 13 14 15 16 18 18 18 19 21 21 22 21 21 21 23 24 25 28 29 30 30 31 30 30 30 27 25 26 27 29 31 31 31 35 37 33 29 25 22 21 21 20 20 21 19 16
25 23 22 21 20 20 20 19 19 18 16 16 16 17 18 17 16 13 11 10 10 10 10 10 10 10 11 12 13 15 15 15 15 15 17 19 19 19 19 20 21 22 24 25 25 26 28 29 29 30 30 30 30 29 28 27 26 28 30 30 29 33 36 35 32 29 25 23 23 22 20 19 19 18
Wind_Direction
119 117 114 110 102 101 106 102 95 89 83 76 69 62 64 73 84 67 359 328 313 352 1 359 340 341 346 344 342 342 340 339 339 339 340 339 339 339 339 340 341 342 341 341 340 339 339 337 335 332 326 327 335 341 344 344 341 339 337 330 316 308 310 309 307 305 301 297 295 290 286 284 280 278
123 117 109 104 100 97 99 101 98 92 87 81 74 63 57 60 71 87 34 322 310 335 344 347 340 339 344 344 343 342 340 340 342 341 340 337 336 337 340 342 341 340 341 341 341 339 338 335 332 326 319 323 332 337 339 340 340 340 338 332 320 311 311 311 310 308 301 295 295 291 285 282 281 278
119 114 106 100 97 95 94 96 96 90 84 78 75 70 59 54 54 52 34 314 297 327 333 337 341 341 342 344 343 341 342 344 342 340 337 333 334 338 341 340 339 340 342 342 341 339 337 333 330 324 315 320 330 335 336 337 340 341 338 333 325 316 313 312 311 310 303 294 293 292 286 283 281 278
121 118 112 108 108 108 105 105 104 95 85 79 77 73 65 57 41 21 17 318 300 319 332 335 340 344 344 344 344 342 344 344 341 337 333 332 335 340 340 338 339 341 342 342 341 339 337 333 329 322 312 316 328 333 334 337 339 339 338 335 329 322 317 315 313 310 305 297 292 291 288 283 280 278
132 130 124 121 122 122 117 116 118 105 89 84 82 73 63 53 34 11 7 346 316 320 335 338 340 345 345 343 345 346 345 344 341 334 332 335 338 338 337 338 340 342 342 343 343 340 338 335 330 321 310 312 325 330 332 335 338 339 339 337 333 329 324 321 319 317 313 305 296 290 286 282 280 277
136 139 136 130 127 123 112 112 123 114 90 79 79 75 61 45 37 20 5 359 333 322 332 339 342 345 346 345 346 347 346 343 339 334 335 338 336 333 336 339 341 342 342 344 344 341 338 336 330 320 309 309 320 326 328 334 337 339 339 338 334 331 328 323 321 321 318 312 304 295 287 281 278 278
138 136 135 132 127 122 113 107 120 123 97 78 79 71 52 32 20 9 2 1 347 328 330 339 344 345 346 345 344 344 344 340 336 337 338 337 333 333 338 341 341 341 342 344 344 341 335 333 329 320 309 305 315 322 326 331 336 337 338 337 333 329 324 320 317 315 312 310 307 303 294 283 275 273
141 137 133 129 129 133 129 115 115 127 112 85 78 53 27 11 357 358 8 8 357 342 336 339 345 347 345 343 341 342 342 338 337 340 338 334 334 337 340 341 342 341 341 342 343 341 336 333 330 322 309 303 311 320 324 328 333 335 335 334 331 326 322 319 317 314 309 304 301 298 293 287 279 271
144 141 137 134 139 149 148 133 124 135 128 104 83 49 8 351 350 357 10 9 1 353 346 342 346 349 347 342 341 343 341 338 339 339 336 336 338 338 340 342 343 341 341 341 341 339 336 334 332 326 313 304 311 319 322 326 331 333 332 330 328 325 321 316 315 313 308 302 296 290 284 282 280 274
149 147 146 149 155 159 158 154 155 156 149 143 111 30 357 353 3 14 16 11 3 356 350 346 346 348 347 342 340 342 341 338 336 333 332 337 340 339 338 340 342 342 341 340 338 336 334 333 333 328 316 308 313 319 320 324 328 331 331 329 326 324 321 316 312 310 308 302 294 287 281 275 273 271
155 158 160 164 168 170 171 170 170 175 176 182 211 9 19 21 24 24 17 9 2 356 349 345 343 342 343 342 339 339 340 339 337 333 329 332 337 339 337 336 339 341 340 338 336 334 333 333 333 329 319 315 317 319 320 323 327 330 331 330 326 323 321 317 312 309 308 303 293 287 282 276 269 264
161 170 175 177 180 189 202 213 129 133 151 163 116 50 43 33 22 13 3 355 352 349 341 338 336 336 338 340 340 340 340 336 334 333 328 325 329 334 334 333 336 339 337 335 333 332 333 332 332 329 322 319 319 319 320 323 327 330 332 331 327 322 319 317 313 311 310 304 294 286 282 278 271 263
169 176 180 183 193 209 211 198 143 124 115 104 86 61 40 18 2 350 341 338 338 336 330 327 331 333 334 336 336 336 334 329 326 328 328 325 326 328 329 331 336 338 336 333 331 332 333 331 330 328 323 321 322 320 321 324 327 330 332 332 328 323 319 317 314 312 311 306 297 287 281 278 272 264
175 181 183 191 195 179 179 173 153 126 95 65 44 31 11 353 339 328 326 328 327 322 318 320 327 328 327 330 331 328 328 329 327 328 328 326 325 327 326 328 334 338 337 331 328 331 333 330 327 327 324 323 324 322 323 327 329 331 333 333 330 325 321 317 314 312 310 307 300 290 281 276 271 264
181 188 192 202 200 169 186 192 185 156 59 26 356 345 341 332 324 317 315 318 317 313 310 316 321 318 316 324 329 327 327 329 327 326 327 325 324 325 325 323 329 336 337 331 325 327 332 331 326 325 326 325 325 325 326 329 331 332 335 334 330 326 321 318 314 310 309 306 299 292 282 273 269 265
188 196 198 201 208 225 217 199 199 223 267 319 317 316 317 324 326 320 314 312 312 310 308 310 315 316 314 320 327 327 324 324 324 325 326 327 325 322 321 318 322 333 336 331 324 324 331 333 327 325 328 328 326 328 331 332 332 335 336 335 332 328 323 319 314 308 306 304 296 288 282 274 269 267
194 200 201 199 209 231 214 185 218 250 270 309 316 315 317 334 340 336 328 322 317 313 308 304 311 319 318 317 324 328 325 320 321 323 325 329 328 324 323 322 323 331 336 332 325 322 329 333 328 324 329 330 328 332 334 334 335 337 338 337 335 332 328 324 321 314 308 303 293 283 278 275 273 272
201 203 205 203 213 228 213 210 237 250 273 307 313 310 320 341 347 341 336 342 344 337 326 311 313 325 326 321 323 330 328 322 323 325 326 330 332 329 329 330 329 334 339 336 327 320 328 333 328 325 330 331 330 335 337 337 338 340 340 340 339 338 337 335 331 325 316 304 289 276 271 271 273 274
212 208 206 208 221 227 214 219 239 249 272 297 298 280 295 329 347 349 344 352 352 346 341 330 323 327 329 325 324 331 334 335 338 338 334 337 338 334 333 334 335 340 343 341 332 318 326 333 328 326 331 331 332 338 340 339 341 342 342 343 343 343 344 342 338 332 323 310 291 273 265 266 272 274
203 198 199 204 217 220 213 219 237 249 269 289 283 268 281 308 351 359 339 336 342 342 339 335 327 324 328 330 335 343 347 349 348 343 341 344 342 335 332 334 337 339 343 345 340 324 326 333 330 327 332 333 333 339 342 342 343 344 344 345 345 346 346 344 342 338 331 321 305 284 270 267 270 273
188 190 199 204 209 212 211 220 238 252 267 281 275 272 283 277 264 324 326 328 342 344 334 331 328 329 338 347 354 357 355 351 348 343 341 344 341 334 332 334 335 337 341 346 346 335 329 334 333 328 332 335 335 339 343 344 345 346 346 346 347 348 346 344 344 342 336 329 314 296 281 271 271 270
200 205 212 214 216 220 221 229 241 251 263 269 266 269 288 278 265 300 335 347 6 2 346 343 341 345 356 1 360 358 354 352 352 348 346 346 341 336 333 332 332 336 341 347 348 339 332 335 335 332 332 335 338 341 343 345 346 347 347 348 349 349 347 346 346 344 340 333 317 298 281 271 272 268
214 215 217 218 221 222 224 229 236 245 257 261 257 257 282 296 296 322 338 343 352 346 342 343 342 348 2 3 357 354 352 354 358 358 354 352 346 340 335 334 335 333 339 348 349 342 334 335 337 337 335 332 337 342 343 345 347 348 348 349 349 348 349 350 350 347 344 340 326 307 284 269 268 263
212 212 216 220 222 223 226 229 233 245 258 258 252 251 267 289 306 325 315 319 328 327 330 336 338 347 0 358 353 352 351 355 0 360 357 354 351 347 340 338 339 332 335 347 350 343 335 336 336 338 339 328 324 336 341 344 348 350 349 349 349 349 351 352 352 351 351 348 336 320 295 274 266 254
213 213 215 218 222 227 233 237 240 249 260 259 252 253 260 275 299 304 297 307 316 317 323 330 334 347 359 354 351 351 351 355 358 357 355 354 353 352 346 341 339 335 339 349 353 346 339 340 338 336 337 334 324 328 335 342 348 351 351 351 351 351 352 353 354 357 1 7 9 2 346 302 268 238
216 217 217 218 224 231 236 239 241 244 251 253 252 254 259 267 288 293 291 300 308 311 318 322 327 348 359 352 349 351 350 352 355 355 353 353 353 354 353 349 343 338 342 351 356 352 345 345 344 338 334 334 331 330 333 339 345 350 353 354 355 355 356 358 1 5 10 19 23 16 14 28 42 209
213 217 221 223 227 231 232 230 228 230 241 255 259 254 249 255 273 283 287 294 301 307 313 313 318 349 360 351 349 349 347 348 352 352 351 351 352 354 354 354 351 348 348 352 357 356 351 348 348 345 337 332 331 332 334 335 342 349 352 353 355 358 360 2 6 9 14 25 29 22 23 43 57 64
214 220 226 229 229 229 226 220 221 230 247 263 266 254 245 249 263 271 275 284 293 300 304 306 311 350 1 351 345 344 344 345 348 349 348 350 352 353 353 353 354 353 353 354 357 358 354 350 351 350 344 337 331 330 330 329 336 346 351 352 354 358 1 3 6 10 15 25 33 31 30 40 51 55
220 223 229 230 226 224 220 216 220 234 255 269 267 259 251 248 254 262 268 277 285 289 294 298 303 338 355 347 338 338 341 343 345 347 346 346 350 352 351 352 354 356 356 356 357 358 357 353 351 351 349 344 337 330 327 326 331 343 351 351 350 354 0 4 6 9 13 19 29 37 38 37 44 52
218 215 217 214 211 210 210 214 224 241 265 274 266 259 253 248 252 259 265 273 279 282 287 291 292 317 344 339 331 333 338 340 341 342 341 340 344 347 347 347 350 355 358 359 358 357 357 356 354 352 349 347 343 337 334 328 326 338 351 353 350 352 359 3 5 9 11 12 19 33 39 38 41 48
200 191 192 191 195 200 207 220 236 252 267 271 264 258 256 255 261 268 272 278 282 283 287 287 282 295 327 329 323 328 335 336 336 337 336 335 338 342 343 342 343 349 354 358 1 359 357 356 356 354 350 347 345 342 340 335 329 335 349 356 356 355 357 1 4 7 9 10 15 25 32 33 34 36
201 191 194 197 202 212 222 234 247 258 267 269 264 262 263 266 273 278 280 282 282 280 283 281 272 281 311 319 317 322 330 332 332 332 332 333 335 339 341 339 340 342 346 351 357 359 358 357 355 355 353 349 345 344 342 341 341 342 348 356 359 359 0 2 4 4 7 11 16 21 26 29 28 28
209 206 209 211 213 220 232 243 251 257 262 264 262 265 274 280 282 281 276 274 274 273 274 272 268 280 302 311 313 322 329 329 328 329 330 331 334 337 339 338 339 340 340 343 349 353 356 358 357 355 355 354 351 348 343 340 344 348 353 357 359 360 2 5 6 6 9 11 11 14 21 25 26 26
214 212 214 215 218 226 237 245 250 252 256 262 268 276 284 283 272 263 267 272 273 274 275 276 278 284 293 303 316 330 330 325 324 326 329 331 333 335 337 337 339 341 340 340 344 347 350 354 356 355 356 356 356 356 353 346 343 346 352 358 0 359 2 7 8 9 12 13 11 12 17 20 22 24
213 213 215 218 223 231 240 245 251 256 261 269 276 282 287 283 268 259 268 271 268 269 271 272 276 280 284 299 325 334 327 319 319 323 327 331 335 337 338 337 338 340 341 340 342 345 347 351 353 353 352 353 354 356 357 355 349 346 348 354 0 1 2 7 10 11 14 16 16 16 15 13 14 17
214 213 215 220 223 228 236 243 248 255 261 267 273 277 281 282 273 265 268 270 269 268 267 268 272 272 273 302 331 332 321 314 317 320 323 330 336 337 338 339 338 340 341 341 342 345 347 351 353 353 350 349 349 350 351 351 350 347 346 349 356 1 2 7 12 14 15 16 16 16 16 11 9 13
216 216 217 221 222 224 231 239 246 253 258 263 268 271 276 278 274 270 274 277 275 272 269 269 267 257 252 308 330 326 316 313 316 317 319 328 335 335 336 337 337 338 340 342 344 346 347 351 354 354 351 348 346 342 343 345 348 351 349 347 352 358 1 4 10 13 16 17 16 14 15 15 15 18
216 217 219 221 223 227 233 240 248 258 264 270 273 275 279 281 276 270 272 277 278 279 277 267 248 230 260 318 326 320 315 315 315 316 321 331 336 334 333 333 334 336 337 340 344 347 349 351 353 353 351 347 340 335 332 334 341 351 354 349 350 356 360 3 7 9 12 17 19 16 15 20 21 21
215 216 217 219 223 229 235 240 247 255 262 269 272 273 279 281 273 262 266 276 279 282 277 248 221 233 297 321 322 316 315 315 312 315 327 337 335 332 330 330 331 331 332 336 341 346 349 351 352 351 348 343 337 335 329 324 334 350 357 355 352 355 359 0 4 6 8 14 18 17 18 24 24 23
215 215 216 220 225 231 237 241 246 252 258 263 266 271 281 282 269 259 265 270 268 268 263 240 237 265 305 318 316 311 311 313 314 319 330 337 333 327 326 327 327 326 327 332 336 341 345 349 350 349 349 348 348 349 350 347 348 354 360 0 357 357 358 357 359 4 8 12 16 16 18 23 23 22
211 213 217 224 231 236 240 244 248 251 257 262 266 273 283 284 272 263 265 264 259 262 264 258 260 282 303 308 306 305 306 311 318 322 325 327 325 322 323 325 324 323 324 328 331 336 341 345 347 350 352 355 357 358 359 357 348 347 354 360 2 1 360 357 356 360 6 13 19 20 18 22 26 26
212 217 223 230 237 240 242 246 250 251 254 259 263 266 275 282 278 272 270 267 262 262 261 260 266 282 292 292 296 304 309 310 312 313 313 313 315 317 321 323 322 322 323 325 328 335 340 344 347 350 354 357 359 358 353 345 337 339 348 357 3 5 5 1 357 358 2 10 21 27 25 22 26 29
217 224 230 234 238 241 243 247 250 252 253 255 256 260 271 278 276 271 269 268 261 252 250 256 267 278 285 289 296 302 305 303 304 305 305 306 310 314 318 322 325 327 328 329 332 337 341 343 345 347 350 353 355 354 346 342 341 342 345 353 0 6 9 8 4 3 5 8 15 25 32 33 35 39
224 229 233 234 236 241 245 248 250 251 250 248 248 255 266 272 271 270 270 268 259 248 248 260 272 280 286 291 294 295 296 299 304 307 306 307 312 316 320 324 329 331 331 333 335 337 339 341 342 345 346 347 349 349 345 343 343 344 347 352 359 5 9 10 8 7 11 15 14 14 22 31 36 40
226 228 231 234 240 245 251 255 255 253 250 249 253 258 263 266 267 270 272 268 260 255 256 263 273 281 288 292 293 294 296 301 308 311 308 307 312 320 324 326 326 327 330 332 333 333 335 337 340 342 343 344 347 347 344 343 345 346 348 353 360 5 6 7 8 7 9 17 21 16 14 20 24 24